Time,TemperatureF,DewpointF,PressureIn,WindDirection,WindDirectionDegrees,WindSpeedMPH,WindSpeedGustMPH,Humidity,HourlyPrecipIn,Conditions,Clouds,dailyrainin,SolarRadiationWatts/m^2,SoftwareType,DateUTC
2013-01-26 00:04:00,49.7,45.4,30.08,NNE,18,0.0,0.0,85,0.00,,,0.00,0,WeatherCatV1.13B119,2013-01-26 08:04:00,
2013-01-26 00:09:00,49.7,45.7,30.08,NNE,18,0.0,0.0,86,0.00,,,0.00,0,WeatherCatV1.13B119,2013-01-26 08:09:00,
2013-01-26 00:14:00,49.6,45.6,30.07,NNE,18,0.0,0.0,86,0.00,,,0.00,0,WeatherCatV1.13B119,2013-01-26 08:14:00,
2013-01-26 00:19:00,49.5,45.5,30.07,NNE,18,0.0,0.0,86,0.00,,,0.00,0,WeatherCatV1.13B119,2013-01-26 08:19:00,
2013-01-26 00:24:00,49.4,45.4,30.07,NNE,18,0.0,0.0,86,0.00,,,0.00,0,WeatherCatV1.13B119,2013-01-26 08:24:00,
2013-01-26 00:29:00,49.4,45.4,30.07,NNE,18,0.0,0.0,86,0.00,,,0.00,0,WeatherCatV1.13B119,2013-01-26 08:29:00,
2013-01-26 00:34:00,49.2,45.2,30.07,NNE,18,0.0,0.0,86,0.00,,,0.00,0,WeatherCatV1.13B119,2013-01-26 08:34:00,
2013-01-26 00:39:00,49.2,45.2,30.07,NNE,18,0.0,0.0,86,0.00,,,0.00,0,WeatherCatV1.13B119,2013-01-26 08:39:00,
2013-01-26 00:44:00,49.1,45.1,30.07,NNE,18,0.0,0.0,86,0.00,,,0.00,0,WeatherCatV1.13B119,2013-01-26 08:44:00,
2013-01-26 00:49:00,48.9,44.9,30.07,NNE,18,0.0,0.0,86,0.00,,,0.00,0,WeatherCatV1.13B119,2013-01-26 08:49:00,
2013-01-26 00:54:00,48.8,44.8,30.07,NNE,18,0.0,0.0,86,0.00,,,0.00,0,WeatherCatV1.13B119,2013-01-26 08:54:00,
2013-01-26 00:59:00,48.7,44.7,30.06,NNE,18,0.0,0.0,86,0.00,,,0.00,0,WeatherCatV1.13B119,2013-01-26 08:59:00,
2013-01-26 01:04:00,48.6,44.6,30.06,NNE,18,0.0,0.0,86,0.00,,,0.00,0,WeatherCatV1.13B119,2013-01-26 09:04:00,
2013-01-26 01:09:00,48.5,44.5,30.06,NNE,18,0.0,0.0,86,0.00,,,0.00,0,WeatherCatV1.13B119,2013-01-26 09:09:00,
2013-01-26 01:14:00,48.4,44.4,30.06,NNE,18,0.0,0.0,86,0.00,,,0.00,0,WeatherCatV1.13B119,2013-01-26 09:14:00,
2013-01-26 01:19:00,48.3,44.3,30.06,NNE,18,0.0,0.0,86,0.00,,,0.00,0,WeatherCatV1.13B119,2013-01-26 09:19:00,
2013-01-26 01:24:00,48.2,44.2,30.06,NNE,18,0.0,0.0,86,0.00,,,0.00,0,WeatherCatV1.13B119,2013-01-26 09:24:00,
2013-01-26 01:29:00,48.1,44.1,30.06,NNE,18,0.0,0.0,86,0.00,,,0.00,0,WeatherCatV1.13B119,2013-01-26 09:29:00,
2013-01-26 01:34:00,47.9,43.9,30.06,NNE,18,0.0,0.0,86,0.00,,,0.00,0,WeatherCatV1.13B119,2013-01-26 09:34:00,
2013-01-26 01:39:00,47.8,43.8,30.06,NNE,18,0.0,0.0,86,0.00,,,0.00,0,WeatherCatV1.13B119,2013-01-26 09:39:00,
2013-01-26 01:44:00,47.7,43.7,30.06,NNE,18,0.0,0.0,86,0.00,,,0.00,0,WeatherCatV1.13B119,2013-01-26 09:44:00,
2013-01-26 01:49:00,47.6,43.9,30.06,NNE,18,0.0,0.0,87,0.00,,,0.00,0,WeatherCatV1.13B119,2013-01-26 09:49:00,
2013-01-26 01:54:00,47.5,43.8,30.06,NNE,18,0.0,0.0,87,0.00,,,0.00,0,WeatherCatV1.13B119,2013-01-26 09:54:00,
2013-01-26 01:59:00,47.4,43.4,30.06,NNE,18,0.0,0.0,86,0.00,,,0.00,0,WeatherCatV1.13B119,2013-01-26 09:59:00,
2013-01-26 02:04:00,47.2,43.2,30.06,NNE,18,0.0,0.0,86,0.00,,,0.00,0,WeatherCatV1.13B119,2013-01-26 10:04:00,
2013-01-26 02:09:00,47.2,43.2,30.06,NNE,18,0.0,0.0,86,0.00,,,0.00,0,WeatherCatV1.13B119,2013-01-26 10:09:00,
2013-01-26 02:14:00,47.0,43.3,30.06,NNE,18,0.0,0.0,87,0.00,,,0.00,0,WeatherCatV1.13B119,2013-01-26 10:14:00,
2013-01-26 02:19:00,46.9,43.2,30.06,NNE,18,0.0,0.0,87,0.00,,,0.00,0,WeatherCatV1.13B119,2013-01-26 10:19:00,
2013-01-26 02:24:00,46.8,42.8,30.07,NNE,18,0.0,0.0,86,0.00,,,0.00,0,WeatherCatV1.13B119,2013-01-26 10:24:00,
2013-01-26 02:29:00,46.7,42.7,30.07,NNE,18,0.0,0.0,86,0.00,,,0.00,0,WeatherCatV1.13B119,2013-01-26 10:29:00,
2013-01-26 02:34:00,46.6,42.9,30.06,NNE,18,0.0,0.0,87,0.00,,,0.00,0,WeatherCatV1.13B119,2013-01-26 10:34:00,
2013-01-26 02:39:00,46.5,42.8,30.06,NNE,18,0.0,0.0,87,0.00,,,0.00,0,WeatherCatV1.13B119,2013-01-26 10:39:00,
2013-01-26 02:44:00,46.4,42.7,30.06,NNE,18,0.0,0.0,87,0.00,,,0.00,0,WeatherCatV1.13B119,2013-01-26 10:44:00,
2013-01-26 02:49:00,46.3,42.6,30.06,NNE,18,0.0,0.0,87,0.00,,,0.00,0,WeatherCatV1.13B119,2013-01-26 10:49:00,
2013-01-26 02:54:00,46.2,42.5,30.06,NNE,18,0.0,0.0,87,0.00,,,0.00,0,WeatherCatV1.13B119,2013-01-26 10:54:00,
2013-01-26 02:59:00,46.1,42.4,30.06,NNE,18,0.0,0.0,87,0.00,,,0.00,0,WeatherCatV1.13B119,2013-01-26 10:59:00,
2013-01-26 03:04:00,46.0,42.3,30.06,NNE,18,0.0,0.0,87,0.00,,,0.00,0,WeatherCatV1.13B119,2013-01-26 11:04:00,
2013-01-26 03:09:00,45.9,42.3,30.06,NNE,18,0.0,0.0,87,0.00,,,0.00,0,WeatherCatV1.13B119,2013-01-26 11:09:00,
2013-01-26 03:14:00,45.8,42.2,30.06,NNE,18,0.0,0.0,87,0.00,,,0.00,0,WeatherCatV1.13B119,2013-01-26 11:14:00,
2013-01-26 03:19:00,45.7,42.1,30.06,NNE,18,0.0,0.0,87,0.00,,,0.00,0,WeatherCatV1.13B119,2013-01-26 11:19:00,
2013-01-26 03:24:00,45.6,42.0,30.05,NNE,18,0.0,0.0,87,0.00,,,0.00,0,WeatherCatV1.13B119,2013-01-26 11:24:00,
2013-01-26 03:29:00,45.5,41.9,30.05,NNE,18,0.0,0.0,87,0.00,,,0.00,0,WeatherCatV1.13B119,2013-01-26 11:29:00,
2013-01-26 03:34:00,45.4,41.8,30.05,NNE,18,0.0,0.0,87,0.00,,,0.00,0,WeatherCatV1.13B119,2013-01-26 11:34:00,
2013-01-26 03:39:00,45.3,41.7,30.05,NNE,18,0.0,0.0,87,0.00,,,0.00,0,WeatherCatV1.13B119,2013-01-26 11:39:00,
2013-01-26 03:44:00,45.2,41.6,30.05,NNE,18,0.0,0.0,87,0.00,,,0.00,0,WeatherCatV1.13B119,2013-01-26 11:44:00,
2013-01-26 03:49:00,45.1,41.5,30.05,NNE,18,0.0,0.0,87,0.00,,,0.00,0,WeatherCatV1.13B119,2013-01-26 11:49:00,
2013-01-26 03:54:00,45.1,41.5,30.05,NNE,18,0.0,0.0,87,0.00,,,0.00,0,WeatherCatV1.13B119,2013-01-26 11:54:00,
2013-01-26 03:59:00,45.1,41.5,30.05,NNE,18,0.0,0.0,87,0.00,,,0.00,0,WeatherCatV1.13B119,2013-01-26 11:59:00,
2013-01-26 04:04:00,45.1,41.5,30.05,NNE,18,0.0,0.0,87,0.00,,,0.00,0,WeatherCatV1.13B119,2013-01-26 12:04:00,
2013-01-26 04:09:00,45.0,41.4,30.05,NNE,18,0.0,0.0,87,0.00,,,0.00,0,WeatherCatV1.13B119,2013-01-26 12:09:00,
2013-01-26 04:14:00,45.1,41.5,30.05,NNE,18,0.0,0.0,87,0.00,,,0.00,0,WeatherCatV1.13B119,2013-01-26 12:14:00,
2013-01-26 04:19:00,45.1,41.8,30.05,NNE,18,0.0,0.0,88,0.00,,,0.00,0,WeatherCatV1.13B119,2013-01-26 12:19:00,
2013-01-26 04:24:00,45.2,41.9,30.05,NNE,18,0.0,0.0,88,0.00,,,0.00,0,WeatherCatV1.13B119,2013-01-26 12:24:00,
2013-01-26 04:29:00,45.2,41.9,30.05,NNE,18,0.0,0.0,88,0.00,,,0.00,0,WeatherCatV1.13B119,2013-01-26 12:29:00,
2013-01-26 04:34:00,45.4,42.1,30.05,NNE,18,0.0,0.0,88,0.00,,,0.00,0,WeatherCatV1.13B119,2013-01-26 12:34:00,
2013-01-26 04:39:00,45.5,42.2,30.05,NNE,18,0.0,0.0,88,0.00,,,0.00,0,WeatherCatV1.13B119,2013-01-26 12:39:00,
2013-01-26 04:44:00,45.6,42.3,30.05,NNE,18,0.0,0.0,88,0.00,,,0.00,0,WeatherCatV1.13B119,2013-01-26 12:44:00,
2013-01-26 04:49:00,45.7,42.4,30.04,NNE,18,0.0,0.0,88,0.00,,,0.00,0,WeatherCatV1.13B119,2013-01-26 12:49:00,
2013-01-26 04:54:00,45.8,42.5,30.04,NNE,18,0.0,0.0,88,0.00,,,0.00,0,WeatherCatV1.13B119,2013-01-26 12:54:00,
2013-01-26 04:59:00,45.9,42.5,30.05,NNE,18,0.0,0.0,88,0.00,,,0.00,0,WeatherCatV1.13B119,2013-01-26 12:59:00,
2013-01-26 05:00:00,46.0,42.6,30.05,NNE,18,0.0,0.0,88,0.00,,,0.00,0,WeatherCatV1.13B119,2013-01-26 13:00:00,
2013-01-26 05:05:00,46.1,42.7,30.05,NNE,18,0.0,0.0,88,0.00,,,0.00,0,WeatherCatV1.13B119,2013-01-26 13:05:00,
2013-01-26 05:10:00,46.3,42.9,30.05,NNE,18,0.0,0.0,88,0.00,,,0.00,0,WeatherCatV1.13B119,2013-01-26 13:10:00,
2013-01-26 05:15:00,46.5,43.4,30.04,NNE,18,0.0,0.0,89,0.00,,,0.00,0,WeatherCatV1.13B119,2013-01-26 13:15:00,
2013-01-26 05:20:00,46.6,43.2,30.05,NNE,18,0.0,0.0,88,0.00,,,0.00,0,WeatherCatV1.13B119,2013-01-26 13:20:00,
2013-01-26 05:25:00,46.7,43.3,30.05,NNE,18,0.0,0.0,88,0.00,,,0.00,0,WeatherCatV1.13B119,2013-01-26 13:25:00,
2013-01-26 05:30:00,46.7,43.3,30.04,NNE,18,0.0,0.0,88,0.00,,,0.00,0,WeatherCatV1.13B119,2013-01-26 13:30:00,
2013-01-26 05:35:00,46.8,43.4,30.04,NNE,18,0.0,0.0,88,0.00,,,0.00,0,WeatherCatV1.13B119,2013-01-26 13:35:00,
2013-01-26 05:40:00,46.9,43.8,30.04,NNE,18,0.0,0.0,89,0.00,,,0.00,0,WeatherCatV1.13B119,2013-01-26 13:40:00,
2013-01-26 05:45:00,46.9,43.8,30.05,NNE,18,0.0,0.0,89,0.00,,,0.00,0,WeatherCatV1.13B119,2013-01-26 13:45:00,
2013-01-26 05:50:00,47.0,43.9,30.05,NNE,18,0.0,0.0,89,0.00,,,0.00,0,WeatherCatV1.13B119,2013-01-26 13:50:00,
2013-01-26 05:55:00,47.0,43.9,30.05,NNE,18,0.0,0.0,89,0.00,,,0.00,0,WeatherCatV1.13B119,2013-01-26 13:55:00,
2013-01-26 06:00:00,47.1,44.0,30.05,NNE,18,0.0,0.0,89,0.00,,,0.00,0,WeatherCatV1.13B119,2013-01-26 14:00:00,
2013-01-26 06:05:00,47.2,44.1,30.05,NNE,18,0.0,0.0,89,0.00,,,0.00,0,WeatherCatV1.13B119,2013-01-26 14:05:00,
2013-01-26 06:10:00,47.3,44.2,30.05,NNE,18,0.0,0.0,89,0.00,,,0.00,0,WeatherCatV1.13B119,2013-01-26 14:10:00,
2013-01-26 06:15:00,47.4,44.3,30.05,NNE,18,0.0,0.0,89,0.00,,,0.00,0,WeatherCatV1.13B119,2013-01-26 14:15:00,
2013-01-26 06:20:00,47.3,44.2,30.05,NNE,18,0.0,0.0,89,0.00,,,0.00,0,WeatherCatV1.13B119,2013-01-26 14:20:00,
2013-01-26 06:25:00,47.4,44.3,30.05,NNE,18,0.0,0.0,89,0.00,,,0.00,0,WeatherCatV1.13B119,2013-01-26 14:25:00,
2013-01-26 06:30:00,47.4,44.3,30.05,NNE,18,0.0,0.0,89,0.00,,,0.00,0,WeatherCatV1.13B119,2013-01-26 14:30:00,
2013-01-26 06:35:00,47.5,44.4,30.05,NNE,18,0.0,0.0,89,0.00,,,0.00,0,WeatherCatV1.13B119,2013-01-26 14:35:00,
2013-01-26 06:40:00,47.6,44.5,30.05,NNE,18,0.0,0.0,89,0.00,,,0.00,0,WeatherCatV1.13B119,2013-01-26 14:40:00,
2013-01-26 06:45:00,47.6,44.5,30.05,NNE,18,0.0,0.0,89,0.00,,,0.00,0,WeatherCatV1.13B119,2013-01-26 14:45:00,
2013-01-26 06:50:00,47.5,44.4,30.05,NNE,18,0.0,0.0,89,0.00,,,0.00,0,WeatherCatV1.13B119,2013-01-26 14:50:00,
2013-01-26 06:55:00,47.5,44.4,30.05,NNE,18,0.0,0.0,89,0.00,,,0.00,0,WeatherCatV1.13B119,2013-01-26 14:55:00,
2013-01-26 07:00:00,47.5,44.4,30.05,NNE,18,0.0,0.0,89,0.00,,,0.00,0,WeatherCatV1.13B119,2013-01-26 15:00:00,
2013-01-26 07:05:00,47.4,44.3,30.05,NNE,18,0.0,0.0,89,0.00,,,0.00,0,WeatherCatV1.13B119,2013-01-26 15:05:00,
2013-01-26 07:10:00,47.4,44.3,30.05,NNE,18,0.0,0.0,89,0.00,,,0.00,0,WeatherCatV1.13B119,2013-01-26 15:10:00,
2013-01-26 07:15:00,47.3,44.2,30.05,NNE,18,0.0,0.0,89,0.00,,,0.00,0,WeatherCatV1.13B119,2013-01-26 15:15:00,
2013-01-26 07:20:00,47.3,44.2,30.05,NNE,18,0.0,0.0,89,0.00,,,0.00,0,WeatherCatV1.13B119,2013-01-26 15:20:00,
2013-01-26 07:25:00,47.2,44.1,30.05,NNE,18,0.0,0.0,89,0.00,,,0.00,7,WeatherCatV1.13B119,2013-01-26 15:25:00,
2013-01-26 07:30:00,47.2,44.1,30.05,NNE,18,0.0,0.0,89,0.00,,,0.00,11,WeatherCatV1.13B119,2013-01-26 15:30:00,
2013-01-26 07:35:00,47.1,44.0,30.05,NNE,18,0.0,0.0,89,0.00,,,0.00,11,WeatherCatV1.13B119,2013-01-26 15:35:00,
2013-01-26 07:40:00,47.1,44.0,30.05,NNE,18,0.0,0.0,89,0.00,,,0.00,16,WeatherCatV1.13B119,2013-01-26 15:40:00,
2013-01-26 07:45:00,47.0,43.9,30.05,NNE,18,0.0,0.0,89,0.00,,,0.00,26,WeatherCatV1.13B119,2013-01-26 15:45:00,
2013-01-26 07:50:00,47.0,43.9,30.05,NNE,18,0.0,0.0,89,0.00,,,0.00,26,WeatherCatV1.13B119,2013-01-26 15:50:00,
2013-01-26 07:55:00,47.0,43.9,30.06,NNE,18,0.0,0.0,89,0.00,,,0.00,14,WeatherCatV1.13B119,2013-01-26 15:55:00,
2013-01-26 08:00:00,47.0,43.9,30.06,NNE,18,0.0,0.0,89,0.00,,,0.00,12,WeatherCatV1.13B119,2013-01-26 16:00:00,
2013-01-26 08:05:00,47.1,44.0,30.06,NNE,18,0.0,0.0,89,0.00,,,0.00,11,WeatherCatV1.13B119,2013-01-26 16:05:00,
2013-01-26 08:10:00,47.2,44.1,30.06,NNE,18,0.0,0.0,89,0.00,,,0.00,18,WeatherCatV1.13B119,2013-01-26 16:10:00,
2013-01-26 08:15:00,47.2,44.1,30.06,NNE,18,0.0,0.0,89,0.00,,,0.00,23,WeatherCatV1.13B119,2013-01-26 16:15:00,
2013-01-26 08:20:00,47.4,44.3,30.06,NNE,18,0.0,0.0,89,0.00,,,0.00,25,WeatherCatV1.13B119,2013-01-26 16:20:00,
2013-01-26 08:25:00,47.5,44.7,30.06,NNE,18,0.0,0.0,90,0.00,,,0.00,25,WeatherCatV1.13B119,2013-01-26 16:25:00,
2013-01-26 08:30:00,47.6,44.8,30.06,NNE,18,0.0,0.0,90,0.00,,,0.00,30,WeatherCatV1.13B119,2013-01-26 16:30:00,
2013-01-26 08:35:00,47.9,45.1,30.06,NNE,18,0.0,0.0,90,0.00,,,0.00,25,WeatherCatV1.13B119,2013-01-26 16:35:00,
2013-01-26 08:40:00,48.2,45.4,30.06,NNE,18,0.0,0.0,90,0.00,,,0.00,28,WeatherCatV1.13B119,2013-01-26 16:40:00,
2013-01-26 08:45:00,48.3,45.5,30.06,NNE,18,0.0,0.0,90,0.00,,,0.00,26,WeatherCatV1.13B119,2013-01-26 16:45:00,
2013-01-26 08:50:00,48.5,45.7,30.06,NNE,18,1.0,1.0,90,0.00,,,0.00,32,WeatherCatV1.13B119,2013-01-26 16:50:00,
2013-01-26 08:55:00,48.8,46.0,30.06,NNE,18,0.0,0.0,90,0.00,,,0.00,33,WeatherCatV1.13B119,2013-01-26 16:55:00,
2013-01-26 09:00:00,49.4,46.6,30.06,WSW,244,0.0,3.0,90,0.00,,,0.00,51,WeatherCatV1.13B119,2013-01-26 17:00:00,
2013-01-26 09:05:00,49.8,47.0,30.07,WSW,245,1.0,1.0,90,0.00,,,0.00,46,WeatherCatV1.13B119,2013-01-26 17:05:00,
2013-01-26 09:10:00,50.1,47.3,30.07,WSW,249,0.0,1.0,90,0.00,,,0.00,67,WeatherCatV1.13B119,2013-01-26 17:10:00,
2013-01-26 09:15:00,50.2,47.4,30.07,WSW,251,0.0,0.0,90,0.00,,,0.00,76,WeatherCatV1.13B119,2013-01-26 17:15:00,
2013-01-26 09:20:00,50.1,47.3,30.07,West,272,2.0,4.0,90,0.00,,,0.00,81,WeatherCatV1.13B119,2013-01-26 17:20:00,
2013-01-26 09:25:00,49.6,46.8,30.07,West,279,0.0,1.0,90,0.00,,,0.00,88,WeatherCatV1.13B119,2013-01-26 17:25:00,
2013-01-26 09:30:00,49.2,46.1,30.07,WNW,282,1.0,1.0,89,0.00,,,0.00,116,WeatherCatV1.13B119,2013-01-26 17:30:00,
2013-01-26 09:35:00,49.1,45.7,30.07,West,281,0.0,0.0,88,0.00,,,0.00,283,WeatherCatV1.13B119,2013-01-26 17:35:00,
2013-01-26 09:40:00,50.6,46.3,30.07,WNW,282,0.0,1.0,85,0.00,,,0.00,283,WeatherCatV1.13B119,2013-01-26 17:40:00,
2013-01-26 09:45:00,51.9,44.9,30.07,WSW,254,2.0,4.0,77,0.00,,,0.00,329,WeatherCatV1.13B119,2013-01-26 17:45:00,
2013-01-26 09:50:00,53.1,44.3,30.07,WSW,257,0.0,1.0,72,0.00,,,0.00,336,WeatherCatV1.13B119,2013-01-26 17:50:00,
2013-01-26 09:55:00,53.9,44.0,30.08,West,281,0.0,2.0,69,0.00,,,0.00,346,WeatherCatV1.13B119,2013-01-26 17:55:00,
2013-01-26 10:00:00,54.2,42.7,30.08,WSW,246,2.0,6.0,65,0.00,,,0.00,362,WeatherCatV1.13B119,2013-01-26 18:00:00,
2013-01-26 10:05:00,54.6,42.7,30.08,WSW,248,1.0,2.0,64,0.00,,,0.00,371,WeatherCatV1.13B119,2013-01-26 18:05:00,
2013-01-26 10:10:00,55.3,43.7,30.08,West,264,1.0,2.0,65,0.00,,,0.00,380,WeatherCatV1.13B119,2013-01-26 18:10:00,
2013-01-26 10:15:00,55.0,41.8,30.08,West,275,0.0,2.0,61,0.00,,,0.00,394,WeatherCatV1.13B119,2013-01-26 18:15:00,
2013-01-26 10:20:00,55.1,42.3,30.08,West,281,0.0,3.0,62,0.00,,,0.00,406,WeatherCatV1.13B119,2013-01-26 18:20:00,
2013-01-26 10:25:00,55.9,43.5,30.08,WSW,248,0.0,6.0,63,0.00,,,0.00,410,WeatherCatV1.13B119,2013-01-26 18:25:00,
2013-01-26 10:30:00,55.9,42.2,30.08,NW,309,0.0,2.0,60,0.00,,,0.00,418,WeatherCatV1.13B119,2013-01-26 18:30:00,
2013-01-26 10:35:00,55.6,42.8,30.08,WNW,298,1.0,2.0,62,0.00,,,0.00,425,WeatherCatV1.13B119,2013-01-26 18:35:00,
2013-01-26 10:40:00,56.6,43.3,30.08,NNW,335,0.0,0.0,61,0.00,,,0.00,434,WeatherCatV1.13B119,2013-01-26 18:40:00,
2013-01-26 10:45:00,57.0,42.4,30.08,West,281,0.0,3.0,58,0.00,,,0.00,410,WeatherCatV1.13B119,2013-01-26 18:45:00,
2013-01-26 10:50:00,56.8,41.3,30.08,West,261,1.0,9.0,56,0.00,,,0.00,420,WeatherCatV1.13B119,2013-01-26 18:50:00,
2013-01-26 10:55:00,56.5,40.1,30.08,NNE,22,1.0,5.0,54,0.00,,,0.00,455,WeatherCatV1.13B119,2013-01-26 18:55:00,
2013-01-26 11:00:00,56.6,41.5,30.08,WSW,238,1.0,3.0,57,0.00,,,0.00,468,WeatherCatV1.13B119,2013-01-26 19:00:00,
2013-01-26 11:05:00,56.4,40.4,30.08,WNW,300,1.0,4.0,55,0.00,,,0.00,468,WeatherCatV1.13B119,2013-01-26 19:05:00,
2013-01-26 11:10:00,56.7,41.6,30.08,WNW,302,1.0,1.0,57,0.00,,,0.00,478,WeatherCatV1.13B119,2013-01-26 19:10:00,
2013-01-26 11:15:00,56.8,41.3,30.08,WNW,294,0.0,11.0,56,0.00,,,0.00,485,WeatherCatV1.13B119,2013-01-26 19:15:00,
2013-01-26 11:20:00,56.6,40.1,30.08,NW,307,1.0,2.0,54,0.00,,,0.00,490,WeatherCatV1.13B119,2013-01-26 19:20:00,
2013-01-26 11:25:00,56.6,39.7,30.07,NW,311,0.0,9.0,53,0.00,,,0.00,494,WeatherCatV1.13B119,2013-01-26 19:25:00,
2013-01-26 11:30:00,56.6,40.1,30.07,WSW,250,3.0,6.0,54,0.00,,,0.00,501,WeatherCatV1.13B119,2013-01-26 19:30:00,
2013-01-26 11:35:00,56.5,39.6,30.07,NNW,333,1.0,4.0,53,0.00,,,0.00,480,WeatherCatV1.13B119,2013-01-26 19:35:00,
2013-01-26 11:40:00,56.5,38.6,30.07,WNW,288,2.0,2.0,51,0.00,,,0.00,512,WeatherCatV1.13B119,2013-01-26 19:40:00,
2013-01-26 11:45:00,56.2,38.8,30.07,WSW,239,3.0,7.0,52,0.00,,,0.00,513,WeatherCatV1.13B119,2013-01-26 19:45:00,
2013-01-26 11:50:00,56.4,40.4,30.07,WNW,287,1.0,2.0,55,0.00,,,0.00,519,WeatherCatV1.13B119,2013-01-26 19:50:00,
2013-01-26 11:55:00,56.5,40.1,30.06,West,268,6.0,6.0,54,0.00,,,0.00,519,WeatherCatV1.13B119,2013-01-26 19:55:00,
2013-01-26 12:00:00,56.9,41.8,30.06,NW,311,1.0,5.0,57,0.00,,,0.00,520,WeatherCatV1.13B119,2013-01-26 20:00:00,
2013-01-26 12:05:00,57.0,41.0,30.06,NW,304,1.0,9.0,55,0.00,,,0.00,519,WeatherCatV1.13B119,2013-01-26 20:05:00,
2013-01-26 12:10:00,57.2,41.2,30.06,WNW,284,2.0,6.0,55,0.00,,,0.00,520,WeatherCatV1.13B119,2013-01-26 20:10:00,
2013-01-26 12:15:00,57.4,41.4,30.05,West,272,0.0,7.0,55,0.00,,,0.00,520,WeatherCatV1.13B119,2013-01-26 20:15:00,
2013-01-26 12:20:00,57.8,42.7,30.05,NNW,330,0.0,2.0,57,0.00,,,0.00,520,WeatherCatV1.13B119,2013-01-26 20:20:00,
2013-01-26 12:24:00,57.9,41.4,30.05,WNW,283,5.0,9.0,54,0.00,,,0.00,520,WeatherCatV1.13B119,2013-01-26 20:24:00,
2013-01-26 12:30:00,57.6,42.0,30.05,NW,321,4.0,4.0,56,0.00,,,0.00,524,WeatherCatV1.13B119,2013-01-26 20:30:00,
2013-01-26 12:34:00,58.0,42.4,30.05,North,355,0.0,7.0,56,0.00,,,0.00,517,WeatherCatV1.13B119,2013-01-26 20:34:00,
2013-01-26 12:39:00,57.8,42.7,30.04,North,0,0.0,2.0,57,0.00,,,0.00,515,WeatherCatV1.13B119,2013-01-26 20:39:00,
2013-01-26 12:44:00,59.0,43.8,30.04,North,350,0.0,4.0,57,0.00,,,0.00,515,WeatherCatV1.13B119,2013-01-26 20:44:00,
2013-01-26 12:49:00,59.0,42.9,30.04,NNE,33,1.0,2.0,55,0.00,,,0.00,515,WeatherCatV1.13B119,2013-01-26 20:49:00,
2013-01-26 12:54:00,58.6,42.5,30.04,North,5,0.0,4.0,55,0.00,,,0.00,510,WeatherCatV1.13B119,2013-01-26 20:54:00,
2013-01-26 12:59:00,58.6,43.0,30.04,WNW,288,0.0,3.0,56,0.00,,,0.00,508,WeatherCatV1.13B119,2013-01-26 20:59:00,
2013-01-26 13:04:00,58.4,41.3,30.04,West,269,1.0,5.0,53,0.00,,,0.00,432,WeatherCatV1.13B119,2013-01-26 21:04:00,
2013-01-26 13:09:00,58.7,42.1,30.04,West,270,6.0,6.0,54,0.00,,,0.00,56,WeatherCatV1.13B119,2013-01-26 21:09:00,
2013-01-26 13:14:00,57.4,40.9,30.04,West,262,2.0,4.0,54,0.00,,,0.00,178,WeatherCatV1.13B119,2013-01-26 21:14:00,
2013-01-26 13:19:00,57.2,41.2,30.04,West,262,0.0,6.0,55,0.00,,,0.00,281,WeatherCatV1.13B119,2013-01-26 21:19:00,
2013-01-26 13:24:00,57.1,41.1,30.04,WNW,299,0.0,9.0,55,0.00,,,0.00,81,WeatherCatV1.13B119,2013-01-26 21:24:00,
2013-01-26 13:29:00,57.1,41.6,30.04,WNW,296,0.0,1.0,56,0.00,,,0.00,98,WeatherCatV1.13B119,2013-01-26 21:29:00,
2013-01-26 13:34:00,57.2,41.6,30.04,West,280,2.0,7.0,56,0.00,,,0.00,98,WeatherCatV1.13B119,2013-01-26 21:34:00,
2013-01-26 13:39:00,56.6,41.5,30.04,West,275,0.0,3.0,57,0.00,,,0.00,346,WeatherCatV1.13B119,2013-01-26 21:39:00,
2013-01-26 13:44:00,56.2,41.2,30.04,NNE,13,0.0,2.0,57,0.00,,,0.00,102,WeatherCatV1.13B119,2013-01-26 21:44:00,
2013-01-26 13:49:00,56.8,43.1,30.04,North,355,1.0,2.0,60,0.00,,,0.00,540,WeatherCatV1.13B119,2013-01-26 21:49:00,
2013-01-26 13:54:00,57.4,42.3,30.04,North,5,0.0,4.0,57,0.00,,,0.00,582,WeatherCatV1.13B119,2013-01-26 21:54:00,
2013-01-26 13:59:00,57.8,42.2,30.04,WNW,299,0.0,7.0,56,0.00,,,0.00,487,WeatherCatV1.13B119,2013-01-26 21:59:00,
2013-01-26 14:04:00,58.1,43.4,30.04,West,264,2.0,6.0,58,0.00,,,0.00,496,WeatherCatV1.13B119,2013-01-26 22:04:00,
2013-01-26 14:09:00,58.3,43.1,30.05,West,276,0.0,6.0,57,0.00,,,0.00,512,WeatherCatV1.13B119,2013-01-26 22:09:00,
2013-01-26 14:14:00,57.7,43.0,30.05,West,278,6.0,10.0,58,0.00,,,0.00,265,WeatherCatV1.13B119,2013-01-26 22:14:00,
2013-01-26 14:19:00,58.1,43.8,30.05,West,270,1.0,2.0,59,0.00,,,0.00,417,WeatherCatV1.13B119,2013-01-26 22:19:00,
2013-01-26 14:24:00,59.0,43.8,30.05,ESE,110,1.0,4.0,57,0.00,,,0.00,443,WeatherCatV1.13B119,2013-01-26 22:24:00,
2013-01-26 14:29:00,58.4,42.8,30.05,WSW,239,1.0,6.0,56,0.00,,,0.00,357,WeatherCatV1.13B119,2013-01-26 22:29:00,
2013-01-26 14:34:00,57.7,42.1,30.05,North,351,1.0,8.0,56,0.00,,,0.00,432,WeatherCatV1.13B119,2013-01-26 22:34:00,
2013-01-26 14:39:00,57.4,41.8,30.05,NNW,327,1.0,7.0,56,0.00,,,0.00,125,WeatherCatV1.13B119,2013-01-26 22:39:00,
2013-01-26 14:44:00,56.7,42.1,30.05,North,355,5.0,7.0,58,0.00,,,0.00,149,WeatherCatV1.13B119,2013-01-26 22:44:00,
2013-01-26 14:49:00,56.7,41.2,30.05,NNW,340,0.0,6.0,56,0.00,,,0.00,158,WeatherCatV1.13B119,2013-01-26 22:49:00,
2013-01-26 14:54:00,56.9,42.3,30.05,North,0,1.0,1.0,58,0.00,,,0.00,139,WeatherCatV1.13B119,2013-01-26 22:54:00,
2013-01-26 14:59:00,57.3,42.2,30.05,WNW,296,8.0,8.0,57,0.00,,,0.00,120,WeatherCatV1.13B119,2013-01-26 22:59:00,
2013-01-26 15:04:00,57.3,41.7,30.05,WSW,249,3.0,5.0,56,0.00,,,0.00,141,WeatherCatV1.13B119,2013-01-26 23:04:00,
2013-01-26 15:09:00,57.3,41.7,30.05,NNW,335,3.0,7.0,56,0.00,,,0.00,134,WeatherCatV1.13B119,2013-01-26 23:09:00,
2013-01-26 15:14:00,57.3,41.3,30.05,West,267,2.0,4.0,55,0.00,,,0.00,362,WeatherCatV1.13B119,2013-01-26 23:14:00,
2013-01-26 15:19:00,57.1,41.1,30.05,WNW,294,1.0,4.0,55,0.00,,,0.00,295,WeatherCatV1.13B119,2013-01-26 23:19:00,
2013-01-26 15:24:00,56.9,41.4,30.05,WSW,242,1.0,6.0,56,0.00,,,0.00,185,WeatherCatV1.13B119,2013-01-26 23:24:00,
2013-01-26 15:29:00,56.4,40.9,30.05,West,272,6.0,6.0,56,0.00,,,0.00,49,WeatherCatV1.13B119,2013-01-26 23:29:00,
2013-01-26 15:34:00,55.0,40.5,30.05,West,273,7.0,9.0,58,0.00,,,0.00,197,WeatherCatV1.13B119,2013-01-26 23:34:00,
2013-01-26 15:35:00,55.0,40.5,30.05,West,275,5.0,9.0,58,0.00,,,0.00,197,WeatherCatV1.13B119,2013-01-26 23:35:00,
2013-01-26 15:40:00,54.4,40.4,30.05,WSW,253,1.0,6.0,59,0.00,,,0.00,49,WeatherCatV1.13B119,2013-01-26 23:40:00,
2013-01-26 15:45:00,54.3,40.7,30.05,WSW,240,2.0,10.0,60,0.00,,,0.00,190,WeatherCatV1.13B119,2013-01-26 23:45:00,
2013-01-26 15:50:00,54.2,41.0,30.05,WNW,290,2.0,5.0,61,0.00,,,0.00,56,WeatherCatV1.13B119,2013-01-26 23:50:00,
2013-01-26 15:55:00,54.0,41.3,30.05,West,264,0.0,2.0,62,0.00,,,0.00,44,WeatherCatV1.13B119,2013-01-26 23:55:00,
2013-01-26 16:00:00,53.9,40.8,30.05,WSW,245,2.0,2.0,61,0.00,,,0.00,40,WeatherCatV1.13B119,2013-01-27 00:00:00,
2013-01-26 16:04:00,53.6,40.5,30.05,West,272,2.0,10.0,61,0.00,,,0.00,35,WeatherCatV1.13B119,2013-01-27 00:04:00,
2013-01-26 16:09:00,53.2,40.1,30.05,West,262,9.0,9.0,61,0.00,,,0.00,26,WeatherCatV1.13B119,2013-01-27 00:09:00,
2013-01-26 16:14:00,53.0,40.3,30.05,West,267,2.0,6.0,62,0.00,,,0.00,26,WeatherCatV1.13B119,2013-01-27 00:14:00,
2013-01-26 16:19:00,52.8,40.1,30.05,WNW,287,5.0,9.0,62,0.00,,,0.00,23,WeatherCatV1.13B119,2013-01-27 00:19:00,
2013-01-26 16:24:00,52.6,40.4,30.06,West,277,1.0,2.0,63,0.00,,,0.00,23,WeatherCatV1.13B119,2013-01-27 00:24:00,
2013-01-26 16:29:00,52.5,40.3,30.05,WSW,246,2.0,6.0,63,0.00,,,0.00,21,WeatherCatV1.13B119,2013-01-27 00:29:00,
2013-01-26 16:34:00,52.3,40.1,30.05,West,270,3.0,6.0,63,0.00,,,0.00,21,WeatherCatV1.13B119,2013-01-27 00:34:00,
2013-01-26 16:39:00,52.2,40.0,30.05,NNE,24,0.0,1.0,63,0.00,,,0.00,21,WeatherCatV1.13B119,2013-01-27 00:39:00,
2013-01-26 16:44:00,52.1,40.3,30.06,West,259,0.0,2.0,64,0.00,,,0.00,18,WeatherCatV1.13B119,2013-01-27 00:44:00,
2013-01-26 16:49:00,51.9,40.1,30.06,WSW,254,0.0,3.0,64,0.00,,,0.00,19,WeatherCatV1.13B119,2013-01-27 00:49:00,
2013-01-26 16:54:00,51.7,40.3,30.06,WSW,241,0.0,2.0,65,0.00,,,0.00,16,WeatherCatV1.13B119,2013-01-27 00:54:00,
2013-01-26 16:59:00,51.5,40.5,30.06,WSW,244,0.0,0.0,66,0.00,,,0.00,12,WeatherCatV1.13B119,2013-01-27 00:59:00,
2013-01-26 17:04:00,51.4,40.4,30.06,WSW,244,0.0,1.0,66,0.00,,,0.00,11,WeatherCatV1.13B119,2013-01-27 01:04:00,
2013-01-26 17:09:00,51.2,40.2,30.06,West,261,0.0,1.0,66,0.00,,,0.00,9,WeatherCatV1.13B119,2013-01-27 01:09:00,
2013-01-26 17:14:00,51.1,40.5,30.06,West,269,2.0,4.0,67,0.00,,,0.00,7,WeatherCatV1.13B119,2013-01-27 01:14:00,
2013-01-26 17:19:00,50.9,40.3,30.06,West,269,0.0,1.0,67,0.00,,,0.00,5,WeatherCatV1.13B119,2013-01-27 01:19:00,
2013-01-26 17:24:00,50.7,40.5,30.06,West,273,0.0,6.0,68,0.00,,,0.00,0,WeatherCatV1.13B119,2013-01-27 01:24:00,
2013-01-26 17:29:00,50.4,40.2,30.06,West,269,0.0,1.0,68,0.00,,,0.00,0,WeatherCatV1.13B119,2013-01-27 01:29:00,
2013-01-26 17:34:00,50.3,40.5,30.07,West,269,1.0,1.0,69,0.00,,,0.00,0,WeatherCatV1.13B119,2013-01-27 01:34:00,
2013-01-26 17:39:00,50.1,40.3,30.07,West,269,0.0,0.0,69,0.00,,,0.00,0,WeatherCatV1.13B119,2013-01-27 01:39:00,
2013-01-26 17:44:00,49.9,40.1,30.07,West,269,0.0,0.0,69,0.00,,,0.00,0,WeatherCatV1.13B119,2013-01-27 01:44:00,
2013-01-26 17:49:00,49.7,40.3,30.07,West,269,0.0,1.0,70,0.00,,,0.00,0,WeatherCatV1.13B119,2013-01-27 01:49:00,
2013-01-26 17:54:00,49.5,40.1,30.07,West,269,0.0,1.0,70,0.00,,,0.00,0,WeatherCatV1.13B119,2013-01-27 01:54:00,
2013-01-26 17:59:00,49.2,40.2,30.07,West,269,0.0,2.0,71,0.00,,,0.00,0,WeatherCatV1.13B119,2013-01-27 01:59:00,
2013-01-26 18:04:00,49.1,40.1,30.07,West,269,0.0,2.0,71,0.00,,,0.00,0,WeatherCatV1.13B119,2013-01-27 02:04:00,
2013-01-26 18:09:00,48.9,40.3,30.07,West,269,0.0,2.0,72,0.00,,,0.00,0,WeatherCatV1.13B119,2013-01-27 02:09:00,
2013-01-26 18:14:00,48.7,40.1,30.08,West,269,0.0,1.0,72,0.00,,,0.00,0,WeatherCatV1.13B119,2013-01-27 02:14:00,
2013-01-26 18:19:00,48.5,40.2,30.08,West,269,0.0,1.0,73,0.00,,,0.00,0,WeatherCatV1.13B119,2013-01-27 02:19:00,
2013-01-26 18:24:00,48.3,40.1,30.08,West,271,0.0,3.0,73,0.00,,,0.00,0,WeatherCatV1.13B119,2013-01-27 02:24:00,
2013-01-26 18:29:00,48.2,40.0,30.08,West,271,0.0,1.0,73,0.00,,,0.00,0,WeatherCatV1.13B119,2013-01-27 02:29:00,
2013-01-26 18:34:00,48.0,40.1,30.08,West,271,1.0,2.0,74,0.00,,,0.00,0,WeatherCatV1.13B119,2013-01-27 02:34:00,
2013-01-26 18:39:00,47.8,39.9,30.08,West,271,0.0,1.0,74,0.00,,,0.00,0,WeatherCatV1.13B119,2013-01-27 02:39:00,
2013-01-26 18:44:00,47.7,39.8,30.08,West,269,0.0,3.0,74,0.00,,,0.00,0,WeatherCatV1.13B119,2013-01-27 02:44:00,
2013-01-26 18:49:00,47.6,40.1,30.08,West,279,0.0,1.0,75,0.00,,,0.00,0,WeatherCatV1.13B119,2013-01-27 02:49:00,
2013-01-26 18:54:00,47.4,39.9,30.08,West,278,0.0,1.0,75,0.00,,,0.00,0,WeatherCatV1.13B119,2013-01-27 02:54:00,
2013-01-26 18:59:00,47.3,39.8,30.08,West,279,0.0,2.0,75,0.00,,,0.00,0,WeatherCatV1.13B119,2013-01-27 02:59:00,
2013-01-26 19:04:00,47.2,39.7,30.08,West,279,0.0,1.0,75,0.00,,,0.00,0,WeatherCatV1.13B119,2013-01-27 03:04:00,
2013-01-26 19:09:00,47.2,39.7,30.08,West,279,0.0,0.0,75,0.00,,,0.00,0,WeatherCatV1.13B119,2013-01-27 03:09:00,
2013-01-26 19:14:00,47.1,39.6,30.08,West,275,0.0,3.0,75,0.00,,,0.00,0,WeatherCatV1.13B119,2013-01-27 03:14:00,
2013-01-26 19:19:00,47.0,39.5,30.09,West,275,0.0,1.0,75,0.00,,,0.00,0,WeatherCatV1.13B119,2013-01-27 03:19:00,
2013-01-26 19:24:00,46.9,39.4,30.09,West,275,0.0,1.0,75,0.00,,,0.00,0,WeatherCatV1.13B119,2013-01-27 03:24:00,
2013-01-26 19:29:00,46.8,39.3,30.09,West,275,0.0,0.0,75,0.00,,,0.00,0,WeatherCatV1.13B119,2013-01-27 03:29:00,
2013-01-26 19:34:00,46.7,39.2,30.09,West,275,0.0,0.0,75,0.00,,,0.00,0,WeatherCatV1.13B119,2013-01-27 03:34:00,
2013-01-26 19:39:00,46.6,39.1,30.09,West,275,0.0,0.0,75,0.00,,,0.00,0,WeatherCatV1.13B119,2013-01-27 03:39:00,
2013-01-26 19:44:00,46.5,39.0,30.09,West,273,0.0,1.0,75,0.00,,,0.00,0,WeatherCatV1.13B119,2013-01-27 03:44:00,
2013-01-26 19:49:00,46.4,39.3,30.09,West,273,0.0,0.0,76,0.00,,,0.00,0,WeatherCatV1.13B119,2013-01-27 03:49:00,
2013-01-26 19:54:00,46.3,39.2,30.09,West,273,0.0,0.0,76,0.00,,,0.00,0,WeatherCatV1.13B119,2013-01-27 03:54:00,
2013-01-26 19:59:00,46.3,39.2,30.09,West,274,0.0,0.0,76,0.00,,,0.00,0,WeatherCatV1.13B119,2013-01-27 03:59:00,
2013-01-26 20:04:00,46.1,39.0,30.10,West,273,0.0,0.0,76,0.00,,,0.00,0,WeatherCatV1.13B119,2013-01-27 04:04:00,
2013-01-26 20:09:00,46.0,39.2,30.10,West,274,0.0,0.0,77,0.00,,,0.00,0,WeatherCatV1.13B119,2013-01-27 04:09:00,
2013-01-26 20:14:00,46.0,39.2,30.09,West,274,0.0,0.0,77,0.00,,,0.00,0,WeatherCatV1.13B119,2013-01-27 04:14:00,
2013-01-26 20:19:00,45.9,39.1,30.09,West,273,0.0,0.0,77,0.00,,,0.00,0,WeatherCatV1.13B119,2013-01-27 04:19:00,
2013-01-26 20:24:00,45.8,39.3,30.09,West,274,0.0,0.0,78,0.00,,,0.00,0,WeatherCatV1.13B119,2013-01-27 04:24:00,
2013-01-26 20:29:00,45.6,39.1,30.09,West,274,0.0,0.0,78,0.00,,,0.00,0,WeatherCatV1.13B119,2013-01-27 04:29:00,
2013-01-26 20:34:00,45.5,39.0,30.10,West,274,0.0,1.0,78,0.00,,,0.00,0,WeatherCatV1.13B119,2013-01-27 04:34:00,
2013-01-26 20:39:00,45.3,38.9,30.10,West,274,0.0,0.0,78,0.00,,,0.00,0,WeatherCatV1.13B119,2013-01-27 04:39:00,
2013-01-26 20:44:00,45.2,38.8,30.10,West,273,0.0,0.0,78,0.00,,,0.00,0,WeatherCatV1.13B119,2013-01-27 04:44:00,
2013-01-26 20:49:00,45.0,38.6,30.10,West,273,0.0,0.0,78,0.00,,,0.00,0,WeatherCatV1.13B119,2013-01-27 04:49:00,
2013-01-26 20:54:00,44.9,38.5,30.10,West,273,0.0,1.0,78,0.00,,,0.00,0,WeatherCatV1.13B119,2013-01-27 04:54:00,
2013-01-26 20:59:00,44.7,38.6,30.10,West,274,0.0,0.0,79,0.00,,,0.00,0,WeatherCatV1.13B119,2013-01-27 04:59:00,
2013-01-26 21:00:00,44.7,38.3,30.10,West,274,0.0,0.0,78,0.00,,,0.00,0,WeatherCatV1.13B119,2013-01-27 05:00:00,
2013-01-26 21:01:00,44.7,38.6,30.10,West,273,0.0,0.0,79,0.00,,,0.00,0,WeatherCatV1.13B119,2013-01-27 05:01:00,
2013-01-26 21:06:00,44.5,38.4,30.10,West,274,0.0,0.0,79,0.00,,,0.00,0,WeatherCatV1.13B119,2013-01-27 05:06:00,
2013-01-26 21:11:00,44.4,38.3,30.10,West,274,0.0,0.0,79,0.00,,,0.00,0,WeatherCatV1.13B119,2013-01-27 05:11:00,
2013-01-26 21:16:00,44.3,38.2,30.10,West,267,1.0,4.0,79,0.00,,,0.00,0,WeatherCatV1.13B119,2013-01-27 05:16:00,
2013-01-26 21:21:00,44.3,38.5,30.10,West,267,0.0,1.0,80,0.00,,,0.00,0,WeatherCatV1.13B119,2013-01-27 05:21:00,
2013-01-26 21:26:00,44.2,38.4,30.10,West,267,0.0,0.0,80,0.00,,,0.00,0,WeatherCatV1.13B119,2013-01-27 05:26:00,
2013-01-26 21:31:00,44.2,38.4,30.11,West,267,0.0,0.0,80,0.00,,,0.00,0,WeatherCatV1.13B119,2013-01-27 05:31:00,
2013-01-26 21:36:00,44.2,38.4,30.11,West,267,0.0,0.0,80,0.00,,,0.00,0,WeatherCatV1.13B119,2013-01-27 05:36:00,
2013-01-26 21:41:00,44.2,38.4,30.11,West,267,0.0,0.0,80,0.00,,,0.00,0,WeatherCatV1.13B119,2013-01-27 05:41:00,
2013-01-26 21:46:00,44.1,38.3,30.11,West,267,0.0,0.0,80,0.00,,,0.00,0,WeatherCatV1.13B119,2013-01-27 05:46:00,
2013-01-26 21:51:00,44.1,38.3,30.11,West,267,0.0,0.0,80,0.00,,,0.00,0,WeatherCatV1.13B119,2013-01-27 05:51:00,
2013-01-26 21:56:00,44.0,38.2,30.11,West,267,0.0,0.0,80,0.00,,,0.00,0,WeatherCatV1.13B119,2013-01-27 05:56:00,
2013-01-26 22:01:00,43.9,38.1,30.11,West,267,0.0,0.0,80,0.00,,,0.00,0,WeatherCatV1.13B119,2013-01-27 06:01:00,
2013-01-26 22:06:00,43.9,38.1,30.11,West,267,0.0,0.0,80,0.00,,,0.00,0,WeatherCatV1.13B119,2013-01-27 06:06:00,
2013-01-26 22:11:00,43.8,38.0,30.11,West,267,0.0,0.0,80,0.00,,,0.00,0,WeatherCatV1.13B119,2013-01-27 06:11:00,
2013-01-26 22:16:00,43.6,38.2,30.11,West,267,0.0,0.0,81,0.00,,,0.00,0,WeatherCatV1.13B119,2013-01-27 06:16:00,
2013-01-26 22:21:00,43.5,38.1,30.11,West,267,0.0,0.0,81,0.00,,,0.00,0,WeatherCatV1.13B119,2013-01-27 06:21:00,
2013-01-26 22:26:00,43.4,38.0,30.11,West,267,0.0,0.0,81,0.00,,,0.00,0,WeatherCatV1.13B119,2013-01-27 06:26:00,
2013-01-26 22:31:00,43.3,37.9,30.11,West,267,0.0,0.0,81,0.00,,,0.00,0,WeatherCatV1.13B119,2013-01-27 06:31:00,
2013-01-26 22:36:00,43.2,37.8,30.12,West,267,0.0,0.0,81,0.00,,,0.00,0,WeatherCatV1.13B119,2013-01-27 06:36:00,
2013-01-26 22:41:00,43.1,37.7,30.12,West,267,0.0,0.0,81,0.00,,,0.00,0,WeatherCatV1.13B119,2013-01-27 06:41:00,
2013-01-26 22:46:00,43.0,37.6,30.12,West,267,0.0,0.0,81,0.00,,,0.00,0,WeatherCatV1.13B119,2013-01-27 06:46:00,
2013-01-26 22:51:00,42.9,37.5,30.12,West,267,0.0,0.0,81,0.00,,,0.00,0,WeatherCatV1.13B119,2013-01-27 06:51:00,
2013-01-26 22:56:00,42.8,37.4,30.12,West,267,0.0,0.0,81,0.00,,,0.00,0,WeatherCatV1.13B119,2013-01-27 06:56:00,
2013-01-26 23:01:00,42.9,37.8,30.12,West,267,0.0,0.0,82,0.00,,,0.00,0,WeatherCatV1.13B119,2013-01-27 07:01:00,
2013-01-26 23:06:00,42.9,37.8,30.12,West,267,0.0,0.0,82,0.00,,,0.00,0,WeatherCatV1.13B119,2013-01-27 07:06:00,
2013-01-26 23:13:00,42.9,37.8,30.12,West,267,0.0,0.0,82,0.00,,,0.00,0,WeatherCatV1.13B119,2013-01-27 07:13:00,
2013-01-26 23:18:00,43.0,38.2,30.12,West,267,0.0,0.0,83,0.00,,,0.00,0,WeatherCatV1.13B119,2013-01-27 07:18:00,
2013-01-26 23:23:00,43.0,38.2,30.12,West,267,0.0,0.0,83,0.00,,,0.00,0,WeatherCatV1.13B119,2013-01-27 07:23:00,
2013-01-26 23:28:00,43.1,38.3,30.12,West,267,0.0,0.0,83,0.00,,,0.00,0,WeatherCatV1.13B119,2013-01-27 07:28:00,
2013-01-26 23:33:00,43.1,38.3,30.12,West,267,0.0,0.0,83,0.00,,,0.00,0,WeatherCatV1.13B119,2013-01-27 07:33:00,
2013-01-26 23:38:00,43.1,38.3,30.12,West,267,0.0,0.0,83,0.00,,,0.00,0,WeatherCatV1.13B119,2013-01-27 07:38:00,
2013-01-26 23:43:00,43.1,38.3,30.12,West,267,0.0,0.0,83,0.00,,,0.00,0,WeatherCatV1.13B119,2013-01-27 07:43:00,
2013-01-26 23:48:00,43.1,38.3,30.12,West,267,0.0,0.0,83,0.00,,,0.00,0,WeatherCatV1.13B119,2013-01-27 07:48:00,
2013-01-26 23:53:00,43.1,38.3,30.12,West,267,0.0,0.0,83,0.00,,,0.00,0,WeatherCatV1.13B119,2013-01-27 07:53:00,
2013-01-26 23:58:00,43.0,38.2,30.12,West,267,0.0,0.0,83,0.00,,,0.00,0,WeatherCatV1.13B119,2013-01-27 07:58:00,